Home > Weather > Springfield > Past weeks

Flag for USA Weather for the Past 2 Weeks in Springfield, Massachusetts, USA

Now
45 °F

Clear.


Feels Like: 44 °F
Forecast: 42 / 54 °F
Wind: 3 mph from Southeast

Location: Barnes Municipal Airport

Current Time: May 1, 2016 at 4:52:24 AM

Latest Report: May 1, 2016 at 3:53 AM


Visibility: 10 mi

Pressure: 30.21 "Hg

Humidity: 65%

Dew Point: 34 °F

Location of SpringfieldLocation

Historic Weather in Springfield — Graph

°F

Springfield Temperature Yesterday

Maximum temperature yesterday: 66 °F (at 1:53 PM)
Minimum temperature yesterday: 43 °F (at 4:53 AM)
Average temperature yesterday: 54 °F

High & Low Weather Summary for the Past Weeks

 TemperatureHumidityPressure
High80 °F (Apr 22, 2:53 PM)96% (Apr 23, 1:57 AM)30.51 "Hg (Apr 23, 1:57 AM)
Low31 °F (Apr 16, 3:53 AM)8% (Apr 24, 1:53 PM)29.75 "Hg (Apr 26, 1:03 PM)
Average52 °F47%30.05 "Hg
* Reported Apr 16 2:53 AM — May 1 2:53 AM, Springfield, Weather by CustomWeather, © 2016

Note: Actual official high and low records may vary slightly from our data, if they occured in-between our weather recording intervals... More about our weather records

Advertising

Springfield Weather History for the Previous 24 Hours

Scroll right to see more
 ConditionsComfort  
Time TempWeatherWind HumidityBarometerVisibility
2:53 AM
Sun, May 1
45 °FClear.5 mph63%30.21 "Hg10 mi
1:53 AM45 °FClear.7 mph63%30.21 "Hg10 mi
12:53 AM46 °FClear.6 mph58%30.22 "Hg10 mi
11:53 PM
Sat, Apr 30
47 °FClear.8 mph52%30.23 "Hg10 mi
10:53 PM49 °FClear.10 mph48%30.23 "Hg10 mi
9:53 PM51 °FClear.13 mph50%30.22 "Hg10 mi
8:53 PM54 °FClear.10 mph51%30.20 "Hg10 mi
7:53 PM57 °FScattered clouds.13 mph46%30.19 "Hg10 mi
6:53 PM62 °FMore clouds than sun.8 mph41%30.16 "Hg10 mi
5:53 PM64 °FOvercast.3 mph37%30.16 "Hg10 mi
4:53 PM64 °FOvercast.6 mph37%30.16 "Hg10 mi
3:53 PM63 °FOvercast.6 mph38%30.16 "Hg10 mi
2:53 PM64 °FOvercast.3 mph34%30.15 "Hg10 mi
1:53 PM66 °FSunny.8 mph33%30.15 "Hg10 mi
12:53 PM63 °FPassing clouds.No wind38%30.16 "Hg10 mi
11:53 AM62 °FPassing clouds.7 mph41%30.16 "Hg10 mi
10:53 AM59 °FSunny.5 mph48%30.19 "Hg10 mi
9:53 AM57 °FPassing clouds.7 mph51%30.20 "Hg10 mi
8:53 AM53 °FPassing clouds.7 mph59%30.21 "Hg10 mi
7:53 AM47 °FOvercast.5 mph74%30.22 "Hg10 mi
6:53 AM45 °FOvercast.5 mph80%30.20 "Hg10 mi
5:53 AM44 °FOvercast.8 mph79%30.17 "Hg10 mi
4:53 AM43 °FPassing clouds.5 mph76%30.14 "Hg10 mi
Weather by CustomWeather, © 2016

See weather overviewHow to use our weather pages